Year,Month,Day,Hour,Minute,Value (Times are PST for temperature in C)
2013,06,22,00,00,13.60
2013,06,22,00,01,13.60
2013,06,22,00,02,13.60
2013,06,22,00,03,13.60
2013,06,22,00,04,13.50
2013,06,22,00,05,13.50
2013,06,22,00,06,13.50
2013,06,22,00,07,13.50
2013,06,22,00,08,13.50
2013,06,22,00,09,13.50
2013,06,22,00,10,13.40
2013,06,22,00,11,13.40
2013,06,22,00,12,13.40
2013,06,22,00,13,13.40
2013,06,22,00,14,13.40
2013,06,22,00,15,13.40
2013,06,22,00,16,13.40
2013,06,22,00,17,13.30
2013,06,22,00,18,13.30
2013,06,22,00,19,13.30
2013,06,22,00,20,13.30
2013,06,22,00,21,13.30
2013,06,22,00,22,13.30
2013,06,22,00,23,13.30
2013,06,22,00,24,13.30
2013,06,22,00,25,13.30
2013,06,22,00,26,13.30
2013,06,22,00,27,13.30
2013,06,22,00,28,13.30
2013,06,22,00,29,13.30
2013,06,22,00,30,13.30
2013,06,22,00,31,13.30
2013,06,22,00,32,13.30
2013,06,22,00,33,13.30
2013,06,22,00,34,13.30
2013,06,22,00,35,13.30
2013,06,22,00,36,13.30
2013,06,22,00,37,13.20
2013,06,22,00,38,13.20
2013,06,22,00,39,13.20
2013,06,22,00,40,13.20
2013,06,22,00,41,13.20
2013,06,22,00,42,13.20
2013,06,22,00,43,13.20
2013,06,22,00,44,13.10
2013,06,22,00,45,13.10
2013,06,22,00,46,13.10
2013,06,22,00,47,13.10
2013,06,22,00,48,13.10
2013,06,22,00,49,13.00
2013,06,22,00,50,13.00
2013,06,22,00,51,13.00
2013,06,22,00,52,12.90
2013,06,22,00,53,12.90
2013,06,22,00,54,12.90
2013,06,22,00,55,12.90
2013,06,22,00,56,12.90
2013,06,22,00,57,12.90
2013,06,22,00,58,12.90
2013,06,22,00,59,12.80
2013,06,22,01,00,12.80
2013,06,22,01,01,12.80
2013,06,22,01,02,12.80
2013,06,22,01,03,12.80
2013,06,22,01,04,12.80
2013,06,22,01,05,12.70
2013,06,22,01,06,12.70
2013,06,22,01,07,12.70
2013,06,22,01,08,12.70
2013,06,22,01,09,12.70
2013,06,22,01,10,12.70
2013,06,22,01,11,12.70
2013,06,22,01,12,12.70
2013,06,22,01,13,12.70
2013,06,22,01,14,12.70
2013,06,22,01,15,12.70
2013,06,22,01,16,12.70
2013,06,22,01,17,12.70
2013,06,22,01,18,12.70
2013,06,22,01,19,12.70
2013,06,22,01,20,12.70
2013,06,22,01,21,12.70
2013,06,22,01,22,12.60
2013,06,22,01,23,12.60
2013,06,22,01,24,12.60
2013,06,22,01,25,12.60
2013,06,22,01,26,12.60
2013,06,22,01,27,12.60
2013,06,22,01,28,12.60
2013,06,22,01,29,12.60
2013,06,22,01,30,12.60
2013,06,22,01,31,12.60
2013,06,22,01,32,12.60
2013,06,22,01,33,12.60
2013,06,22,01,34,12.60
2013,06,22,01,35,12.60
2013,06,22,01,36,12.50
2013,06,22,01,37,12.50
2013,06,22,01,38,12.50
2013,06,22,01,39,12.50
2013,06,22,01,40,12.50
2013,06,22,01,41,12.50
2013,06,22,01,42,12.40
2013,06,22,01,43,12.40
2013,06,22,01,44,12.40
2013,06,22,01,45,12.40
2013,06,22,01,46,12.40
2013,06,22,01,47,12.40
2013,06,22,01,48,12.40
2013,06,22,01,49,12.40
2013,06,22,01,50,12.40
2013,06,22,01,51,12.40
2013,06,22,01,52,12.40
2013,06,22,01,53,12.40
2013,06,22,01,54,12.30
2013,06,22,01,55,12.30
2013,06,22,01,56,12.30
2013,06,22,01,57,12.30
2013,06,22,01,58,12.30
2013,06,22,01,59,12.30
2013,06,22,02,00,12.20
2013,06,22,02,01,12.20
2013,06,22,02,02,12.20
2013,06,22,02,03,12.10
2013,06,22,02,04,12.00
2013,06,22,02,05,12.00
2013,06,22,02,06,11.90
2013,06,22,02,07,11.90
2013,06,22,02,08,11.80
2013,06,22,02,09,11.80
2013,06,22,02,10,11.80
2013,06,22,02,11,11.80
2013,06,22,02,12,11.80
2013,06,22,02,13,11.70
2013,06,22,02,14,11.70
2013,06,22,02,15,11.70
2013,06,22,02,16,11.70
2013,06,22,02,17,11.70
2013,06,22,02,18,11.70
2013,06,22,02,19,11.70
2013,06,22,02,20,11.70
2013,06,22,02,21,11.70
2013,06,22,02,22,11.70
2013,06,22,02,23,11.70
2013,06,22,02,24,11.70
2013,06,22,02,25,11.70
2013,06,22,02,26,11.70
2013,06,22,02,27,11.70
2013,06,22,02,28,11.70
2013,06,22,02,29,11.70
2013,06,22,02,30,11.70
2013,06,22,02,31,11.70
2013,06,22,02,32,11.70
2013,06,22,02,33,11.70
2013,06,22,02,34,11.70
2013,06,22,02,35,11.70
2013,06,22,02,36,11.70
2013,06,22,02,37,11.70
2013,06,22,02,38,11.70
2013,06,22,02,39,11.70
2013,06,22,02,40,11.70
2013,06,22,02,41,11.60
2013,06,22,02,42,11.60
2013,06,22,02,43,11.60
2013,06,22,02,44,11.60
2013,06,22,02,45,11.60
2013,06,22,02,46,11.60
2013,06,22,02,47,11.60
2013,06,22,02,48,11.60
2013,06,22,02,49,11.60
2013,06,22,02,50,11.60
2013,06,22,02,51,11.60
2013,06,22,02,52,11.60
2013,06,22,02,53,11.60
2013,06,22,02,54,11.60
2013,06,22,02,55,11.60
2013,06,22,02,56,11.60
2013,06,22,02,57,11.60
2013,06,22,02,58,11.60
2013,06,22,02,59,11.50
2013,06,22,03,00,11.50
2013,06,22,03,01,11.50
2013,06,22,03,02,11.50
2013,06,22,03,03,11.50
2013,06,22,03,04,11.50
2013,06,22,03,05,11.50
2013,06,22,03,06,11.50
2013,06,22,03,07,11.50
2013,06,22,03,08,11.50
2013,06,22,03,09,11.60
2013,06,22,03,10,11.60
2013,06,22,03,11,11.60
2013,06,22,03,12,11.60
2013,06,22,03,13,11.60
2013,06,22,03,14,11.70
2013,06,22,03,15,11.70
2013,06,22,03,16,11.70
2013,06,22,03,17,11.70
2013,06,22,03,18,11.70
2013,06,22,03,19,11.70
2013,06,22,03,20,11.70
2013,06,22,03,21,11.70
2013,06,22,03,22,11.70
2013,06,22,03,23,11.70
2013,06,22,03,24,11.70
2013,06,22,03,25,11.70
2013,06,22,03,26,11.70
2013,06,22,03,27,11.80
2013,06,22,03,28,11.80
2013,06,22,03,29,11.80
2013,06,22,03,30,11.80
2013,06,22,03,31,11.80
2013,06,22,03,32,11.80
2013,06,22,03,33,11.80
2013,06,22,03,34,11.80
2013,06,22,03,35,11.80
2013,06,22,03,36,11.80
2013,06,22,03,37,11.80
2013,06,22,03,38,11.80
2013,06,22,03,39,11.80
2013,06,22,03,40,11.80
2013,06,22,03,41,11.80
2013,06,22,03,42,11.80
2013,06,22,03,43,11.80
2013,06,22,03,44,11.80
2013,06,22,03,45,11.80
2013,06,22,03,46,11.80
2013,06,22,03,47,11.80
2013,06,22,03,48,11.80
2013,06,22,03,49,11.80
2013,06,22,03,50,11.80
2013,06,22,03,51,11.80
2013,06,22,03,52,11.80
2013,06,22,03,53,11.80
2013,06,22,03,54,11.80
2013,06,22,03,55,11.70
2013,06,22,03,56,11.70
2013,06,22,03,57,11.70
2013,06,22,03,58,11.70
2013,06,22,03,59,11.70
2013,06,22,04,00,11.70
2013,06,22,04,01,11.70
2013,06,22,04,02,11.70
2013,06,22,04,03,11.70
2013,06,22,04,04,11.70
2013,06,22,04,05,11.70
2013,06,22,04,06,11.70
2013,06,22,04,07,11.70
2013,06,22,04,08,11.70
2013,06,22,04,09,11.70
2013,06,22,04,10,11.70
2013,06,22,04,11,11.70
2013,06,22,04,12,11.70
2013,06,22,04,13,11.70
2013,06,22,04,14,11.70
2013,06,22,04,15,11.70
2013,06,22,04,16,11.70
2013,06,22,04,17,11.70
2013,06,22,04,18,11.70
2013,06,22,04,19,11.70
2013,06,22,04,20,11.70
2013,06,22,04,21,11.70
2013,06,22,04,22,11.70
2013,06,22,04,23,11.60
2013,06,22,04,24,11.60
2013,06,22,04,25,11.60
2013,06,22,04,26,11.60
2013,06,22,04,27,11.60
2013,06,22,04,28,11.60
2013,06,22,04,29,11.50
2013,06,22,04,30,11.50
2013,06,22,04,31,11.40
2013,06,22,04,32,11.40
2013,06,22,04,33,11.40
2013,06,22,04,34,11.40
2013,06,22,04,35,11.30
2013,06,22,04,36,11.10
2013,06,22,04,37,11.00
2013,06,22,04,38,10.90
2013,06,22,04,39,10.80
2013,06,22,04,40,10.80
2013,06,22,04,41,10.70
2013,06,22,04,42,10.70
2013,06,22,04,43,10.70
2013,06,22,04,44,10.70
2013,06,22,04,45,10.70
2013,06,22,04,46,10.70
2013,06,22,04,47,10.70
2013,06,22,04,48,10.70
2013,06,22,04,49,10.70
2013,06,22,04,50,10.70
2013,06,22,04,51,10.70
2013,06,22,04,52,10.70
2013,06,22,04,53,10.70
2013,06,22,04,54,10.70
2013,06,22,04,55,10.70
2013,06,22,04,56,10.70
2013,06,22,04,57,10.70
2013,06,22,04,58,10.70
2013,06,22,04,59,10.70
2013,06,22,05,00,10.70
2013,06,22,05,01,10.70
2013,06,22,05,02,10.60
2013,06,22,05,03,10.60
2013,06,22,05,04,10.50
2013,06,22,05,05,10.50
2013,06,22,05,06,10.50
2013,06,22,05,07,10.40
2013,06,22,05,08,10.40
2013,06,22,05,09,10.40
2013,06,22,05,10,10.40
2013,06,22,05,11,10.40
2013,06,22,05,12,10.30
2013,06,22,05,13,10.30
2013,06,22,05,14,10.40
2013,06,22,05,15,10.30
2013,06,22,05,16,10.30
2013,06,22,05,17,10.30
2013,06,22,05,18,10.30
2013,06,22,05,19,10.30
2013,06,22,05,20,10.30
2013,06,22,05,21,10.30
2013,06,22,05,22,10.30
2013,06,22,05,23,10.30
2013,06,22,05,24,10.30
2013,06,22,05,25,10.30
2013,06,22,05,26,10.30
2013,06,22,05,27,10.30
2013,06,22,05,28,10.30
2013,06,22,05,29,10.30
2013,06,22,05,30,10.20
2013,06,22,05,31,10.20
2013,06,22,05,32,10.20
2013,06,22,05,33,10.20
2013,06,22,05,34,10.10
2013,06,22,05,35,10.10
2013,06,22,05,36,10.10
2013,06,22,05,37,10.10
2013,06,22,05,38,10.10
2013,06,22,05,39,10.10
2013,06,22,05,40,10.10
2013,06,22,05,41,10.10
2013,06,22,05,42,10.10
2013,06,22,05,43,10.10
2013,06,22,05,44,10.10
2013,06,22,05,45,10.10
2013,06,22,05,46,10.10
2013,06,22,05,47,10.10
2013,06,22,05,48,10.10
2013,06,22,05,49,10.10
2013,06,22,05,50,10.10
2013,06,22,05,51,10.10
2013,06,22,05,52,10.10
2013,06,22,05,53,10.10
2013,06,22,05,54,10.10
2013,06,22,05,55,10.10
2013,06,22,05,56,10.10
2013,06,22,05,57,10.10
2013,06,22,05,58,10.10
2013,06,22,05,59,10.10
2013,06,22,06,00,10.00
2013,06,22,06,01,10.00
2013,06,22,06,02,10.00
2013,06,22,06,03,9.90
2013,06,22,06,04,9.90
2013,06,22,06,05,9.90
2013,06,22,06,06,9.90
2013,06,22,06,07,9.80
2013,06,22,06,08,9.80
2013,06,22,06,09,9.90
2013,06,22,06,10,9.90
2013,06,22,06,11,9.90
2013,06,22,06,12,9.90
2013,06,22,06,13,9.90
2013,06,22,06,14,10.00
2013,06,22,06,15,10.00
2013,06,22,06,16,10.10
2013,06,22,06,17,10.10
2013,06,22,06,18,10.10
2013,06,22,06,19,10.20
2013,06,22,06,20,10.30
2013,06,22,06,21,10.30
2013,06,22,06,22,10.30
2013,06,22,06,23,10.40
2013,06,22,06,24,10.50
2013,06,22,06,25,10.50
2013,06,22,06,26,10.60
2013,06,22,06,27,10.60
2013,06,22,06,28,10.70
2013,06,22,06,29,10.80
2013,06,22,06,30,10.80
2013,06,22,06,31,10.80
2013,06,22,06,32,10.90
2013,06,22,06,33,10.90
2013,06,22,06,34,10.90
2013,06,22,06,35,10.80
2013,06,22,06,36,10.90
2013,06,22,06,37,10.90
2013,06,22,06,38,10.90
2013,06,22,06,39,10.90
2013,06,22,06,40,10.90
2013,06,22,06,41,10.90
2013,06,22,06,42,11.00
2013,06,22,06,43,11.00
2013,06,22,06,44,11.10
2013,06,22,06,45,11.20
2013,06,22,06,46,11.30
2013,06,22,06,47,11.40
2013,06,22,06,48,11.50
2013,06,22,06,49,11.50
2013,06,22,06,50,11.60
2013,06,22,06,51,11.70
2013,06,22,06,52,11.70
2013,06,22,06,53,11.80
2013,06,22,06,54,11.80
2013,06,22,06,55,11.90
2013,06,22,06,56,11.90
2013,06,22,06,57,12.00
2013,06,22,06,58,12.00
2013,06,22,06,59,12.10
2013,06,22,07,00,12.20
2013,06,22,07,01,12.30
2013,06,22,07,02,12.30
2013,06,22,07,03,12.40
2013,06,22,07,04,12.50
2013,06,22,07,05,12.60
2013,06,22,07,06,12.70
2013,06,22,07,07,12.80
2013,06,22,07,08,12.90
2013,06,22,07,09,12.90
2013,06,22,07,10,12.90
2013,06,22,07,11,12.90
2013,06,22,07,12,12.90
2013,06,22,07,13,12.80
2013,06,22,07,14,12.80
2013,06,22,07,15,12.80
2013,06,22,07,16,12.80
2013,06,22,07,17,12.80
2013,06,22,07,18,12.80
2013,06,22,07,19,12.90
2013,06,22,07,20,12.90
2013,06,22,07,21,13.00
2013,06,22,07,22,13.00
2013,06,22,07,23,13.10
2013,06,22,07,24,13.10
2013,06,22,07,25,13.10
2013,06,22,07,26,13.20
2013,06,22,07,27,13.20
2013,06,22,07,28,13.30
2013,06,22,07,29,13.30
2013,06,22,07,30,13.30
2013,06,22,07,31,13.40
2013,06,22,07,32,13.40
2013,06,22,07,33,13.40
2013,06,22,07,34,13.50
2013,06,22,07,35,13.50
2013,06,22,07,36,13.60
2013,06,22,07,37,13.70
2013,06,22,07,38,13.70
2013,06,22,07,39,13.70
2013,06,22,07,40,13.80
2013,06,22,07,41,13.80
2013,06,22,07,42,13.80
2013,06,22,07,43,13.90
2013,06,22,07,44,13.90
2013,06,22,07,45,13.90
2013,06,22,07,46,14.00
2013,06,22,07,47,13.90
2013,06,22,07,48,13.90
2013,06,22,07,49,13.90
2013,06,22,07,50,13.90
2013,06,22,07,51,13.80
2013,06,22,07,52,13.80
2013,06,22,07,53,13.70
2013,06,22,07,54,13.70
2013,06,22,07,55,13.70
2013,06,22,07,56,13.70
2013,06,22,07,57,13.70
2013,06,22,07,58,13.80
2013,06,22,07,59,13.80
2013,06,22,08,00,13.70
2013,06,22,08,01,13.70
2013,06,22,08,02,13.70
2013,06,22,08,03,13.60
2013,06,22,08,04,13.60
2013,06,22,08,05,13.60
2013,06,22,08,06,13.60
2013,06,22,08,07,13.60
2013,06,22,08,08,13.60
2013,06,22,08,09,13.60
2013,06,22,08,10,13.70
2013,06,22,08,11,13.70
2013,06,22,08,12,13.80
2013,06,22,08,13,13.80
2013,06,22,08,14,13.80
2013,06,22,08,15,13.80
2013,06,22,08,16,13.80
2013,06,22,08,17,13.80
2013,06,22,08,18,13.80
2013,06,22,08,19,13.80
2013,06,22,08,20,13.90
2013,06,22,08,21,13.90
2013,06,22,08,22,13.90
2013,06,22,08,23,14.00
2013,06,22,08,24,14.00
2013,06,22,08,25,14.10
2013,06,22,08,26,14.10
2013,06,22,08,27,14.10
2013,06,22,08,28,14.10
2013,06,22,08,29,14.10
2013,06,22,08,30,14.10
2013,06,22,08,31,14.10
2013,06,22,08,32,14.10
2013,06,22,08,33,14.10
2013,06,22,08,34,14.10
2013,06,22,08,35,14.10
2013,06,22,08,36,14.10
2013,06,22,08,37,14.10
2013,06,22,08,38,14.20
2013,06,22,08,39,14.20
2013,06,22,08,40,14.30
2013,06,22,08,41,14.30
2013,06,22,08,42,14.40
2013,06,22,08,43,14.50
2013,06,22,08,44,14.50
2013,06,22,08,45,14.50
2013,06,22,08,46,14.50
2013,06,22,08,47,14.50
2013,06,22,08,48,14.40
2013,06,22,08,49,14.50
2013,06,22,08,50,14.50
2013,06,22,08,51,14.60
2013,06,22,08,52,14.70
2013,06,22,08,53,14.80
2013,06,22,08,54,14.80
2013,06,22,08,55,14.90
2013,06,22,08,56,14.90
2013,06,22,08,57,15.00
2013,06,22,08,58,15.10
2013,06,22,08,59,15.10
2013,06,22,09,00,15.10
2013,06,22,09,01,15.10
2013,06,22,09,02,15.10
2013,06,22,09,03,15.10
2013,06,22,09,04,15.10
2013,06,22,09,05,15.10
2013,06,22,09,06,15.10
2013,06,22,09,07,15.10
2013,06,22,09,08,15.10
2013,06,22,09,09,15.10
2013,06,22,09,10,15.10
2013,06,22,09,11,15.10
2013,06,22,09,12,15.10
2013,06,22,09,13,15.10
2013,06,22,09,14,15.20
2013,06,22,09,15,15.20
2013,06,22,09,16,15.20
2013,06,22,09,17,15.20
2013,06,22,09,18,15.20
2013,06,22,09,19,15.20
2013,06,22,09,20,15.10
2013,06,22,09,21,15.00
2013,06,22,09,22,14.90
2013,06,22,09,23,14.90
2013,06,22,09,24,14.80
2013,06,22,09,25,14.80
2013,06,22,09,26,14.80
2013,06,22,09,27,14.80
2013,06,22,09,28,14.80
2013,06,22,09,29,14.70
2013,06,22,09,30,14.70
2013,06,22,09,31,14.70
2013,06,22,09,32,14.70
2013,06,22,09,33,14.70
2013,06,22,09,34,14.70
2013,06,22,09,35,14.70
2013,06,22,09,36,14.70
2013,06,22,09,37,14.80
2013,06,22,09,38,14.80
2013,06,22,09,39,14.80
2013,06,22,09,40,14.90
2013,06,22,09,41,14.80
2013,06,22,09,42,14.80
2013,06,22,09,43,14.80
2013,06,22,09,44,14.90
2013,06,22,09,45,14.90
2013,06,22,09,46,15.00
2013,06,22,09,47,15.10
2013,06,22,09,48,15.10
2013,06,22,09,49,15.10
2013,06,22,09,50,15.00
2013,06,22,09,51,14.90
2013,06,22,09,52,14.80
2013,06,22,09,53,14.80
2013,06,22,09,54,14.80
2013,06,22,09,55,14.90
2013,06,22,09,56,14.90
2013,06,22,09,57,14.90
2013,06,22,09,58,15.00
2013,06,22,09,59,15.00
2013,06,22,10,00,15.00
2013,06,22,10,01,15.00
2013,06,22,10,02,15.00
2013,06,22,10,03,15.10
2013,06,22,10,04,15.20
2013,06,22,10,05,15.20
2013,06,22,10,06,15.10
2013,06,22,10,07,15.10
2013,06,22,10,08,15.10
2013,06,22,10,09,15.10
2013,06,22,10,10,15.20
2013,06,22,10,11,15.20
2013,06,22,10,12,15.20
2013,06,22,10,13,15.20
2013,06,22,10,14,15.20
2013,06,22,10,15,15.30
2013,06,22,10,16,15.40
2013,06,22,10,17,15.50
2013,06,22,10,18,15.60
2013,06,22,10,19,15.70
2013,06,22,10,20,15.80
2013,06,22,10,21,15.80
2013,06,22,10,22,15.80
2013,06,22,10,23,15.70
2013,06,22,10,24,15.70
2013,06,22,10,25,15.60
2013,06,22,10,26,15.60
2013,06,22,10,27,15.50
2013,06,22,10,28,15.50
2013,06,22,10,29,15.60
2013,06,22,10,30,15.60
2013,06,22,10,31,15.60
2013,06,22,10,32,15.60
2013,06,22,10,33,15.60
2013,06,22,10,34,15.70
2013,06,22,10,35,15.70
2013,06,22,10,36,15.70
2013,06,22,10,37,15.60
2013,06,22,10,38,15.50
2013,06,22,10,39,15.50
2013,06,22,10,40,15.50
2013,06,22,10,41,15.60
2013,06,22,10,42,15.60
2013,06,22,10,43,15.60
2013,06,22,10,44,15.50
2013,06,22,10,45,15.50
2013,06,22,10,46,15.40
2013,06,22,10,47,15.40
2013,06,22,10,48,15.40
2013,06,22,10,49,15.40
2013,06,22,10,50,15.50
2013,06,22,10,51,15.40
2013,06,22,10,52,15.40
2013,06,22,10,53,15.40
2013,06,22,10,54,15.40
2013,06,22,10,55,15.40
2013,06,22,10,56,15.30
2013,06,22,10,57,15.30
2013,06,22,10,58,15.30
2013,06,22,10,59,15.30
2013,06,22,11,00,15.30
2013,06,22,11,01,15.30
2013,06,22,11,02,15.30
2013,06,22,11,03,15.30
2013,06,22,11,04,15.40
2013,06,22,11,05,15.40
2013,06,22,11,06,15.40
2013,06,22,11,07,15.40
2013,06,22,11,08,15.40
2013,06,22,11,09,15.40
2013,06,22,11,10,15.50
2013,06,22,11,11,15.50
2013,06,22,11,12,15.50
2013,06,22,11,13,15.50
2013,06,22,11,14,15.50
2013,06,22,11,15,15.50
2013,06,22,11,16,15.50
2013,06,22,11,17,15.60
2013,06,22,11,18,15.70
2013,06,22,11,19,15.80
2013,06,22,11,20,15.90
2013,06,22,11,21,15.90
2013,06,22,11,22,15.90
2013,06,22,11,23,15.90
2013,06,22,11,24,15.90
2013,06,22,11,25,15.90
2013,06,22,11,26,15.90
2013,06,22,11,27,15.90
2013,06,22,11,28,15.90
2013,06,22,11,29,15.80
2013,06,22,11,30,15.80
2013,06,22,11,31,15.80
2013,06,22,11,32,15.80
2013,06,22,11,33,15.90
2013,06,22,11,34,15.90
2013,06,22,11,35,16.00
2013,06,22,11,36,16.10
2013,06,22,11,37,16.20
2013,06,22,11,38,16.20
2013,06,22,11,39,16.30
2013,06,22,11,40,16.30
2013,06,22,11,41,16.30
2013,06,22,11,42,16.30
2013,06,22,11,43,16.30
2013,06,22,11,44,16.40
2013,06,22,11,45,16.50
2013,06,22,11,46,16.60
2013,06,22,11,47,16.70
2013,06,22,11,48,16.70
2013,06,22,11,49,16.60
2013,06,22,11,50,16.50
2013,06,22,11,51,16.50
2013,06,22,11,52,16.40
2013,06,22,11,53,16.50
2013,06,22,11,54,16.60
2013,06,22,11,55,16.70
2013,06,22,11,56,16.60
2013,06,22,11,57,16.70
2013,06,22,11,58,16.60
2013,06,22,11,59,16.50
2013,06,22,12,00,16.50
2013,06,22,12,01,16.50
2013,06,22,12,02,16.30
2013,06,22,12,03,16.20
2013,06,22,12,04,16.10
2013,06,22,12,05,16.10
2013,06,22,12,06,16.00
2013,06,22,12,07,15.90
2013,06,22,12,08,16.00
2013,06,22,12,09,16.00
2013,06,22,12,10,15.90
2013,06,22,12,11,15.90
2013,06,22,12,12,15.90
2013,06,22,12,13,16.00
2013,06,22,12,14,16.10
2013,06,22,12,15,16.10
2013,06,22,12,16,16.20
2013,06,22,12,17,16.30
2013,06,22,12,18,16.30
2013,06,22,12,19,16.30
2013,06,22,12,20,16.30
2013,06,22,12,21,16.30
2013,06,22,12,22,16.20
2013,06,22,12,23,16.20
2013,06,22,12,24,16.30
2013,06,22,12,25,16.30
2013,06,22,12,26,16.30
2013,06,22,12,27,16.30
2013,06,22,12,28,16.30
2013,06,22,12,29,16.20
2013,06,22,12,30,16.20
2013,06,22,12,31,16.20
2013,06,22,12,32,16.20
2013,06,22,12,33,16.30
2013,06,22,12,34,16.50
2013,06,22,12,35,16.60
2013,06,22,12,36,16.70
2013,06,22,12,37,16.80
2013,06,22,12,38,16.70
2013,06,22,12,39,16.70
2013,06,22,12,40,16.70
2013,06,22,12,41,16.70
2013,06,22,12,42,16.80
2013,06,22,12,43,16.80
2013,06,22,12,44,16.90
2013,06,22,12,45,16.90
2013,06,22,12,46,17.00
2013,06,22,12,47,17.20
2013,06,22,12,48,17.30
2013,06,22,12,49,17.30
2013,06,22,12,50,17.30
2013,06,22,12,51,17.40
2013,06,22,12,52,17.50
2013,06,22,12,53,17.50
2013,06,22,12,54,17.60
2013,06,22,12,55,17.60
2013,06,22,12,56,17.60
2013,06,22,12,57,17.60
2013,06,22,12,58,17.60
2013,06,22,12,59,17.70
2013,06,22,13,00,17.70
2013,06,22,13,01,17.70
2013,06,22,13,02,17.80
2013,06,22,13,03,17.90
2013,06,22,13,04,18.00
2013,06,22,13,05,18.10
2013,06,22,13,06,18.20
2013,06,22,13,07,18.20
2013,06,22,13,08,18.20
2013,06,22,13,09,18.20
2013,06,22,13,10,18.20
2013,06,22,13,11,18.20
2013,06,22,13,12,18.20
2013,06,22,13,13,18.30
2013,06,22,13,14,18.40
2013,06,22,13,15,18.50
2013,06,22,13,16,18.60
2013,06,22,13,17,18.70
2013,06,22,13,18,18.60
2013,06,22,13,19,18.60
2013,06,22,13,20,18.70
2013,06,22,13,21,18.60
2013,06,22,13,22,18.70
2013,06,22,13,23,18.80
2013,06,22,13,24,18.90
2013,06,22,13,25,18.90
2013,06,22,13,26,19.00
2013,06,22,13,27,19.10
2013,06,22,13,28,19.10
2013,06,22,13,29,19.00
2013,06,22,13,30,18.90
2013,06,22,13,31,18.90
2013,06,22,13,32,18.90
2013,06,22,13,33,18.80
2013,06,22,13,34,18.70
2013,06,22,13,35,18.60
2013,06,22,13,36,18.70
2013,06,22,13,37,18.70
2013,06,22,13,38,18.80
2013,06,22,13,39,18.90
2013,06,22,13,40,19.10
2013,06,22,13,41,19.20
2013,06,22,13,42,19.20
2013,06,22,13,43,19.10
2013,06,22,13,44,19.00
2013,06,22,13,45,18.90
2013,06,22,13,46,18.80
2013,06,22,13,47,18.80
2013,06,22,13,48,18.80
2013,06,22,13,49,18.80
2013,06,22,13,50,18.90
2013,06,22,13,51,19.00
2013,06,22,13,52,19.00
2013,06,22,13,53,19.10
2013,06,22,13,54,19.20
2013,06,22,13,55,19.30
2013,06,22,13,56,19.40
2013,06,22,13,57,19.50
2013,06,22,13,58,19.70
2013,06,22,13,59,19.80
2013,06,22,14,00,20.00
2013,06,22,14,01,20.00
2013,06,22,14,02,20.00
2013,06,22,14,03,19.90
2013,06,22,14,04,19.90
2013,06,22,14,05,19.80
2013,06,22,14,06,19.70
2013,06,22,14,07,19.60
2013,06,22,14,08,19.60
2013,06,22,14,09,19.60
2013,06,22,14,10,19.70
2013,06,22,14,11,19.70
2013,06,22,14,12,19.70
2013,06,22,14,13,19.70
2013,06,22,14,14,19.70
2013,06,22,14,15,19.60
2013,06,22,14,16,19.60
2013,06,22,14,17,19.60
2013,06,22,14,18,19.60
2013,06,22,14,19,19.60
2013,06,22,14,20,19.50
2013,06,22,14,21,19.50
2013,06,22,14,22,19.50
2013,06,22,14,23,19.50
2013,06,22,14,24,19.60
2013,06,22,14,25,19.60
2013,06,22,14,26,19.60
2013,06,22,14,27,19.60
2013,06,22,14,28,19.60
2013,06,22,14,29,19.70
2013,06,22,14,30,19.70
2013,06,22,14,31,19.70
2013,06,22,14,32,19.70
2013,06,22,14,33,19.70
2013,06,22,14,34,19.70
2013,06,22,14,35,19.70
2013,06,22,14,36,19.80
2013,06,22,14,37,19.80
2013,06,22,14,38,19.80
2013,06,22,14,39,19.80
2013,06,22,14,40,19.80
2013,06,22,14,41,19.80
2013,06,22,14,42,19.70
2013,06,22,14,43,19.60
2013,06,22,14,44,19.60
2013,06,22,14,45,19.60
2013,06,22,14,46,19.60
2013,06,22,14,47,19.50
2013,06,22,14,48,19.40
2013,06,22,14,49,19.40
2013,06,22,14,50,19.40
2013,06,22,14,51,19.40
2013,06,22,14,52,19.50
2013,06,22,14,53,19.60
2013,06,22,14,54,19.70
2013,06,22,14,55,19.70
2013,06,22,14,56,19.70
2013,06,22,14,57,19.80
2013,06,22,14,58,19.80
2013,06,22,14,59,19.80
2013,06,22,15,00,19.90
2013,06,22,15,01,19.90
2013,06,22,15,02,19.80
2013,06,22,15,03,19.80
2013,06,22,15,04,19.70
2013,06,22,15,05,19.60
2013,06,22,15,06,19.70
2013,06,22,15,07,19.70
2013,06,22,15,08,19.70
2013,06,22,15,09,19.80
2013,06,22,15,10,19.80
2013,06,22,15,11,19.80
2013,06,22,15,12,19.80
2013,06,22,15,13,19.80
2013,06,22,15,14,19.80
2013,06,22,15,15,19.80
2013,06,22,15,16,19.80
2013,06,22,15,17,19.70
2013,06,22,15,18,19.60
2013,06,22,15,19,19.60
2013,06,22,15,20,19.60
2013,06,22,15,21,19.60
2013,06,22,15,22,19.60
2013,06,22,15,23,19.60
2013,06,22,15,24,19.70
2013,06,22,15,25,19.70
2013,06,22,15,26,19.80
2013,06,22,15,27,19.90
2013,06,22,15,28,20.00
2013,06,22,15,29,20.00
2013,06,22,15,30,20.10
2013,06,22,15,31,20.10
2013,06,22,15,32,20.10
2013,06,22,15,33,20.10
2013,06,22,15,34,20.10
2013,06,22,15,35,20.10
2013,06,22,15,36,20.10
2013,06,22,15,37,20.10
2013,06,22,15,38,20.20
2013,06,22,15,39,20.30
2013,06,22,15,40,20.40
2013,06,22,15,41,20.50
2013,06,22,15,42,20.50
2013,06,22,15,43,20.60
2013,06,22,15,44,20.50
2013,06,22,15,45,20.40
2013,06,22,15,46,20.30
2013,06,22,15,47,20.30
2013,06,22,15,48,20.20
2013,06,22,15,49,20.10
2013,06,22,15,50,20.00
2013,06,22,15,51,20.00
2013,06,22,15,52,19.90
2013,06,22,15,53,19.80
2013,06,22,15,54,19.90
2013,06,22,15,55,20.00
2013,06,22,15,56,20.10
2013,06,22,15,57,20.20
2013,06,22,15,58,20.10
2013,06,22,15,59,20.00
2013,06,22,16,00,20.00
2013,06,22,16,01,20.00
2013,06,22,16,02,20.00
2013,06,22,16,03,20.00
2013,06,22,16,04,20.10
2013,06,22,16,05,20.20
2013,06,22,16,06,20.30
2013,06,22,16,07,20.30
2013,06,22,16,08,20.40
2013,06,22,16,09,20.40
2013,06,22,16,10,20.50
2013,06,22,16,11,20.60
2013,06,22,16,12,20.60
2013,06,22,16,13,20.70
2013,06,22,16,14,20.70
2013,06,22,16,15,20.60
2013,06,22,16,16,20.60
2013,06,22,16,17,20.50
2013,06,22,16,18,20.50
2013,06,22,16,19,20.60
2013,06,22,16,20,20.60
2013,06,22,16,21,20.60
2013,06,22,16,22,20.60
2013,06,22,16,23,20.70
2013,06,22,16,24,20.60
2013,06,22,16,25,20.60
2013,06,22,16,26,20.60
2013,06,22,16,27,20.60
2013,06,22,16,28,20.60
2013,06,22,16,29,20.60
2013,06,22,16,30,20.60
2013,06,22,16,31,20.60
2013,06,22,16,32,20.50
2013,06,22,16,33,20.50
2013,06,22,16,34,20.40
2013,06,22,16,35,20.40
2013,06,22,16,36,20.40
2013,06,22,16,37,20.40
2013,06,22,16,38,20.40
2013,06,22,16,39,20.40
2013,06,22,16,40,20.50
2013,06,22,16,41,20.50
2013,06,22,16,42,20.60
2013,06,22,16,43,20.60
2013,06,22,16,44,20.60
2013,06,22,16,45,20.60
2013,06,22,16,46,20.70
2013,06,22,16,47,20.80
2013,06,22,16,48,20.80
2013,06,22,16,49,20.70
2013,06,22,16,50,20.60
2013,06,22,16,51,20.60
2013,06,22,16,52,20.70
2013,06,22,16,53,20.70
2013,06,22,16,54,20.80
2013,06,22,16,55,20.80
2013,06,22,16,56,20.70
2013,06,22,16,57,20.70
2013,06,22,16,58,20.70
2013,06,22,16,59,20.70
2013,06,22,17,00,20.60
2013,06,22,17,01,20.60
2013,06,22,17,02,20.60
2013,06,22,17,03,20.70
2013,06,22,17,04,20.70
2013,06,22,17,05,20.70
2013,06,22,17,06,20.70
2013,06,22,17,07,20.70
2013,06,22,17,08,20.80
2013,06,22,17,09,20.90
2013,06,22,17,10,21.00
2013,06,22,17,11,21.10
2013,06,22,17,12,21.10
2013,06,22,17,13,21.00
2013,06,22,17,14,21.00
2013,06,22,17,15,21.00
2013,06,22,17,16,21.10
2013,06,22,17,17,21.10
2013,06,22,17,18,21.10
2013,06,22,17,19,21.00